Litchfield, MN

7:05 PM CST on February 24, 2018 (GMT -0600)
Litchfield Municipal

Weather History for KLJF - October, 2011

Change the Weather History Date:

Friday, October 7, 2011

  Actual Average Record
Temperature  
Mean Temperature 72 °F -  
Max Temperature 80 °F 62 °F 85 °F (1980)
Min Temperature 64 °F 38 °F 20 °F (1976)
Cooling Degree Days 7    
Growing Degree Days 22 (Base 50)    
Moisture  
Dew Point 52 °F    
Average Humidity 48    
Maximum Humidity 56    
Minimum Humidity 42    
Precipitation  
Precipitation 0.00 in - - ()
Sea Level Pressure  
Sea Level Pressure 29.86 in    
Wind  
Wind Speed 11 mph (SSE)    
Max Wind Speed 16 mph    
Max Gust Speed 31 mph    
Visibility 10 miles    
Events      
Averages and records for this station are not official NWS values.
T = Trace of Precipitation, MM = Missing Value Source: NWS Daily Summary

Daily Weather History Graph

Daily Weather History Graph

Search for Another Location

Airport or City:

Trip Planner

Search our weather history database for the weather conditions in past years. The results will help you decide how hot, cold, wet, or windy it might be!

Date:

Astronomy

Oct. 07, 2011 Rise Set
Actual Time 7:23 AM CDT 6:47 PM CDT
Civil Twilight 6:53 AM CDT 7:17 PM CDT
Nautical Twilight 6:19 AM CDT 7:51 PM CDT
Astronomical Twilight 5:45 AM CDT 8:25 PM CDT
Moon 4:39 PM CDT (10/7) 3:02 AM CDT (10/7)
Length of Visible Light 12h 23m
Length of Day
11h 24m
Waxing Gibbous, 83% of the Moon is Illuminated
Oct 7
Waxing Gibbous
Oct 11
Full
Oct 19
Last Quarter
Oct 26
New
Nov 2
First Quarter

Hourly Weather History & Observations

Time (CDT) Temp. Heat Index Dew Point Humidity Pressure Visibility Wind Dir Wind Speed Gust Speed Precip Events Conditions
12:13 AM 68.0 °F - 46.4 °F 46% 29.94 in 10.0 mi SSE 12.7 mph 19.6 mph N/A   Clear
12:33 AM 68.0 °F - 46.4 °F 46% 29.93 in 10.0 mi SSE 12.7 mph 20.7 mph N/A   Clear
12:53 AM 68.0 °F - 46.4 °F 46% 29.93 in 10.0 mi SSE 12.7 mph 19.6 mph N/A   Clear
1:13 AM 68.0 °F - 46.4 °F 46% 29.93 in 10.0 mi SSE 10.4 mph 19.6 mph N/A   Clear
1:33 AM 68.0 °F - 46.4 °F 46% 29.93 in 10.0 mi SSE 11.5 mph 20.7 mph N/A   Clear
1:53 AM 68.0 °F - 46.4 °F 46% 29.93 in 10.0 mi SSE 11.5 mph 19.6 mph N/A   Clear
2:13 AM 66.2 °F - 46.4 °F 49% 29.94 in 10.0 mi SSE 10.4 mph 18.4 mph N/A   Clear
2:33 AM 66.2 °F - 46.4 °F 49% 29.94 in 10.0 mi SSE 11.5 mph - N/A   Clear
2:53 AM 66.2 °F - 46.4 °F 49% 29.94 in 10.0 mi SSE 11.5 mph 16.1 mph N/A   Clear
3:13 AM 68.0 °F - 46.4 °F 46% 29.93 in 10.0 mi SSE 10.4 mph 19.6 mph N/A   Clear
3:33 AM 66.2 °F - 48.2 °F 52% 29.93 in 10.0 mi SSE 11.5 mph 16.1 mph N/A   Clear
3:53 AM 66.2 °F - 48.2 °F 52% 29.93 in 10.0 mi SSE 10.4 mph 17.3 mph N/A   Clear
4:13 AM 66.2 °F - 48.2 °F 52% 29.93 in 10.0 mi SSE 10.4 mph 17.3 mph N/A   Clear
4:33 AM 66.2 °F - 48.2 °F 52% 29.92 in 10.0 mi SSE 11.5 mph 20.7 mph N/A   Clear
4:53 AM 66.2 °F - 48.2 °F 52% 29.91 in 10.0 mi SSE 12.7 mph 23.0 mph N/A   Clear
5:13 AM 66.2 °F - 48.2 °F 52% 29.91 in 10.0 mi SSE 11.5 mph 17.3 mph N/A   Clear
5:33 AM 68.0 °F - 48.2 °F 49% 29.91 in 10.0 mi SSE 13.8 mph 24.2 mph N/A   Clear
5:53 AM 66.2 °F - 48.2 °F 52% 29.91 in 10.0 mi SSE 9.2 mph 18.4 mph N/A   Clear
6:13 AM 66.2 °F - 48.2 °F 52% 29.90 in 10.0 mi SSE 10.4 mph 18.4 mph N/A   Clear
6:33 AM 66.2 °F - 48.2 °F 52% 29.89 in 10.0 mi SE 11.5 mph 20.7 mph N/A   Clear
6:53 AM 64.4 °F - 48.2 °F 56% 29.89 in 10.0 mi SSE 11.5 mph 19.6 mph N/A   Clear
7:33 AM 64.4 °F - 48.2 °F 56% 29.88 in 10.0 mi SE 11.5 mph 18.4 mph N/A   Mostly Cloudy
7:53 AM 64.4 °F - 48.2 °F 56% 29.89 in 10.0 mi SE 10.4 mph 18.4 mph N/A   Overcast
8:13 AM 66.2 °F - 50.0 °F 56% 29.89 in 10.0 mi SSE 10.4 mph 19.6 mph N/A   Overcast
8:33 AM 66.2 °F - 50.0 °F 56% 29.87 in 10.0 mi SSE 13.8 mph 23.0 mph N/A   Mostly Cloudy
8:53 AM 69.8 °F - 50.0 °F 49% 29.87 in 10.0 mi SSE 12.7 mph 19.6 mph N/A   Scattered Clouds
9:13 AM 69.8 °F - 50.0 °F 49% 29.86 in 10.0 mi SSE 13.8 mph 21.9 mph N/A   Mostly Cloudy
9:33 AM 69.8 °F - 50.0 °F 49% 29.86 in 10.0 mi SSE 16.1 mph 26.5 mph N/A   Scattered Clouds
9:53 AM 69.8 °F - 50.0 °F 49% 29.85 in 10.0 mi SSE 15.0 mph 26.5 mph N/A   Scattered Clouds
10:13 AM 71.6 °F - 50.0 °F 46% 29.86 in 10.0 mi SSE 15.0 mph 31.1 mph N/A   Scattered Clouds
10:33 AM 71.6 °F - 50.0 °F 46% 29.86 in 10.0 mi SSE 11.5 mph 25.3 mph N/A   Scattered Clouds
10:53 AM 71.6 °F - 51.8 °F 50% 29.85 in 10.0 mi SSE 15.0 mph 24.2 mph N/A   Clear
11:13 AM 71.6 °F - 51.8 °F 50% 29.85 in 10.0 mi SSE 10.4 mph 19.6 mph N/A   Scattered Clouds
11:33 AM 73.4 °F - 51.8 °F 47% 29.85 in 10.0 mi South 11.5 mph 24.2 mph N/A   Clear
11:53 AM 73.4 °F - 51.8 °F 47% 29.84 in 10.0 mi SSE 11.5 mph 21.9 mph N/A   Clear
12:33 PM 75.2 °F - 53.6 °F 47% 29.83 in 10.0 mi South 13.8 mph 25.3 mph N/A   Scattered Clouds
12:53 PM 75.2 °F - 53.6 °F 47% 29.82 in 10.0 mi SSE 11.5 mph 20.7 mph N/A   Scattered Clouds
1:12 PM 78.8 °F - 53.6 °F 42% 29.82 in 10.0 mi South 11.5 mph 21.9 mph N/A   Clear
1:33 PM 78.8 °F - 53.6 °F 42% 29.81 in 10.0 mi South 8.1 mph 23.0 mph N/A   Clear
2:33 PM 78.8 °F - 55.4 °F 44% 29.80 in 7.0 mi South 12.7 mph 24.2 mph N/A   Scattered Clouds
3:13 PM 78.8 °F - 55.4 °F 44% 29.79 in 10.0 mi South 8.1 mph 19.6 mph N/A   Scattered Clouds
3:33 PM 80.6 °F 80.5 °F 55.4 °F 42% 29.79 in 10.0 mi South 8.1 mph 23.0 mph N/A   Mostly Cloudy
4:13 PM 80.6 °F 80.8 °F 57.2 °F 45% 29.79 in 10.0 mi South 10.4 mph 20.7 mph N/A   Scattered Clouds
4:33 PM 80.6 °F 80.5 °F 55.4 °F 42% 29.79 in 10.0 mi South 6.9 mph 19.6 mph N/A   Mostly Cloudy
4:53 PM 78.8 °F - 55.4 °F 44% 29.79 in 10.0 mi South 9.2 mph 23.0 mph N/A   Overcast
5:13 PM 78.8 °F - 55.4 °F 44% 29.79 in 10.0 mi South 10.4 mph 17.3 mph N/A   Overcast
5:33 PM 78.8 °F - 55.4 °F 44% 29.79 in 10.0 mi South 6.9 mph 23.0 mph N/A   Mostly Cloudy
5:53 PM 78.8 °F - 57.2 °F 47% 29.79 in 10.0 mi SSE 5.8 mph - N/A   Overcast
6:13 PM 78.8 °F - 57.2 °F 47% 29.79 in 10.0 mi South 9.2 mph 18.4 mph N/A   Mostly Cloudy
6:33 PM 78.8 °F - 57.2 °F 47% 29.79 in 10.0 mi South 10.4 mph 18.4 mph N/A   Mostly Cloudy
6:53 PM 78.8 °F - 57.2 °F 47% 29.80 in 10.0 mi South 6.9 mph - N/A   Scattered Clouds
7:13 PM 78.8 °F - 57.2 °F 47% 29.80 in 10.0 mi South 8.1 mph 20.7 mph N/A   Scattered Clouds
7:33 PM 78.8 °F - 57.2 °F 47% 29.81 in 10.0 mi South 9.2 mph 19.6 mph N/A   Scattered Clouds
7:53 PM 78.8 °F - 57.2 °F 47% 29.81 in 10.0 mi South 8.1 mph - N/A   Scattered Clouds
8:13 PM 77.0 °F - 57.2 °F 50% 29.80 in 10.0 mi South 8.1 mph 18.4 mph N/A   Clear
8:33 PM 77.0 °F - 57.2 °F 50% 29.80 in 10.0 mi South 9.2 mph 18.4 mph N/A   Clear
8:53 PM 77.0 °F - 57.2 °F 50% 29.82 in 10.0 mi SSE 11.5 mph 19.6 mph N/A   Scattered Clouds
9:13 PM 77.0 °F - 57.2 °F 50% 29.83 in 10.0 mi South 8.1 mph 18.4 mph N/A   Scattered Clouds
9:33 PM 77.0 °F - 57.2 °F 50% 29.83 in 10.0 mi South 10.4 mph 26.5 mph N/A   Scattered Clouds
9:53 PM 77.0 °F - 57.2 °F 50% 29.84 in 10.0 mi South 11.5 mph 24.2 mph N/A   Mostly Cloudy
10:13 PM 77.0 °F - 57.2 °F 50% 29.85 in 10.0 mi South 9.2 mph 26.5 mph N/A   Mostly Cloudy
10:33 PM 77.0 °F - 57.2 °F 50% 29.85 in 10.0 mi South 10.4 mph 25.3 mph N/A   Mostly Cloudy
10:53 PM 77.0 °F - 57.2 °F 50% 29.85 in 10.0 mi South 8.1 mph 20.7 mph N/A   Mostly Cloudy
11:13 PM 75.2 °F - 57.2 °F 53% 29.86 in 10.0 mi South 9.2 mph 24.2 mph N/A   Scattered Clouds
11:33 PM 75.2 °F - 57.2 °F 53% 29.86 in 10.0 mi South 8.1 mph 23.0 mph N/A   Scattered Clouds
11:53 PM 75.2 °F - 57.2 °F 53% 29.87 in 10.0 mi South 9.2 mph - N/A   Scattered Clouds